星链-35066 (STARLINK-35066)

导读

STARLINK-35066是美国SpaceX星链互联网星座的一员,于2025年8月30日发射升空。星链计划旨在通过近地轨道卫星群,为全球提供高速低延迟互联网覆盖。该卫星入轨后,将和其他星链卫星协同工作,进一步完善星座网络布局,提升全球网络服务能力,推动全球互联覆盖目标实现。

基本信息
目录编号:
65386
目录名称:
STARLINK-35066
国际标识:
2025-191H
轨道中心:
EARTH
卫星名称:
星链-35066
卫星全名:
星链-35066 (STARLINK-35066)
卫星状态:
在轨 (已飞行287 天)
发射日期:
2025-08-30 UTC
国别 :
美国 (US)
星等 :
--
轨道信息
数据来源 国际轨道数据 AOE轨道数据
星历时间 2026-06-13T12:42:01+0800
11小时前
查看轨道信息
2026-06-07T01:00:00+0800
6天前
查看轨道信息
半长轴 6927.612km 6927.669km
偏心率 0.0001633 0.0001821
轨道倾角 97.366° 97.399°
近地点辐角 78.463° 113.036°
升交点赤经 34.852° 28.645°
平近点角 281.678° 24.683°
近地点 548.343km 548.27km
远地点 550.607km 550.794km
周期 95.639分钟 95.640分钟
每日圈数 15.05662 15.056433
详细信息
固有亮度:
5
最大亮度:
2.5
卫星平台:
Starlink V1.0
覆盖范围:
全球
运营商:
太空探索技术公司
运营商所在国:
美国
制造商(研发单位):
太空探索技术公司
制造商所在国:
美国
使用方式:
暂无
卫星简介
Starlink 计划是 SpaceX 推出的全球卫星互联网项目,通过发射低轨道卫星,为全球尤其是偏远地区提供高速、低延迟的互联网服务。自 2019 年起,Starlink 已部署数千颗卫星,旨在缩小全球数字鸿沟,推动互联网普及。该项目还为军事、航空等行业提供通信支持,带来广泛经济效益。
2D轨道图
3D轨道图
轨道高度分析图
轨道倾角分析图
轨道综合分析图
查看轨道综合分析图